Location: Chervonnoye
(48.6000°N, 34.4000°E)
Time: 18:35:28
(UTC+00:00)

Cosmos 1328 Rocket - Visible Passes

Search period start: 16 April 2021 00:00
Search period end: 26 April 2021 00:00
Orbit: 602 x 626 km, 82.5° (Epoch: 15 April)

Date Brightness Start Highest point End Pass type
(mag) Time Alt. Az. Time Alt. Az. Time Alt. Az.
16 Apr 6.0 20:49:18 15° NE 20:49:18 15° NE 20:50:33 10° NE visible
16 Apr 5.1 22:26:21 33° NNW 22:26:21 33° NNW 22:29:06 10° N visible
17 Apr 5.6 21:04:52 22° NE 21:04:52 22° NE 21:06:54 10° NNE visible
17 Apr 5.3 22:41:55 25° NW 22:41:55 25° NW 22:44:38 10° N visible
18 Apr 5.1 21:20:26 32° NE 21:20:26 32° NE 21:22:59 10° NNE visible
18 Apr 5.7 22:57:28 18° NW 22:57:28 18° NW 22:59:54 10° NNW visible
19 Apr 4.8 21:35:59 40° N 21:35:59 40° N 21:38:53 10° N visible
19 Apr 6.1 23:13:01 12° WNW 23:13:01 12° WNW 23:14:28 10° NW visible
20 Apr 5.8 20:14:29 15° ENE 20:14:29 15° ENE 20:15:53 10° NE visible
20 Apr 4.8 21:51:31 38° NNW 21:51:31 38° NNW 21:54:37 10° N visible
21 Apr 5.3 20:30:00 23° NE 20:30:00 23° NE 20:32:19 10° NNE visible
21 Apr 5.2 22:07:02 29° NW 22:07:02 29° NW 22:10:10 10° N visible
22 Apr 4.8 20:45:31 36° NE 20:45:31 36° NE 20:48:26 10° NNE visible
22 Apr 5.6 22:22:33 20° WNW 22:22:33 20° WNW 22:25:30 10° NNW visible
23 Apr 4.3 21:01:01 50° NNE 21:01:01 50° NNE 21:04:21 10° N visible
23 Apr 6.0 22:38:03 13° WNW 22:38:18 13° WNW 22:40:17 10° NW visible
24 Apr 5.7 19:39:28 15° ENE 19:39:28 15° ENE 19:41:13 10° NE visible
24 Apr 4.4 21:16:30 49° NW 21:16:30 49° NW 21:20:07 10° N visible
25 Apr 5.1 19:54:56 25° ENE 19:54:56 25° ENE 19:57:44 10° NNE visible
25 Apr 4.9 21:31:58 33° WNW 21:31:58 33° WNW 21:35:43 10° N visible
